Hourly Data Report for May 29, 2012

All times are specified in Local Standard Time (LST). Add 1 hour to adjust for Daylight Saving Time where and when it is observed.

THUNDER BAY
ONTARIO

48°22'19.000" N
89°19'18.000" W
199.30 m
6048260
71072
YQT

Download Data

Hourly Data (May 2012)
Hourly Data Report for May 29, 2012
Temp Definition
°C
Dew Point Temp Definition
°C
Rel Hum Definition
%
Wind Dir Definition
10's deg

Wind Spd Definition
km/h
Visibility Definition
km
Stn Press Definition
kPa
Hmdx Definition


Wind Chill Definition


Weather Definition


TIME
00:00
01:00 Legend Double Dagger LegendMM LegendMM LegendMM LegendMM LegendMM LegendMM LegendMM     LegendNANA
02:00 Legend Double Dagger 9.6 9.0 96 32 8 16.1 97.83     LegendNANA
03:00 Legend Double Dagger 9.3 8.9 97 LegendMM 4 11.3 97.74     LegendNANA
04:00 Legend Double Dagger LegendMM LegendMM LegendMM   0 9.7 97.79     LegendNANA
05:00 Legend Double Dagger 9.3 9.0 98 12 5 6.4 97.75     LegendNANA
06:00
07:00 Legend Double Dagger 10.7 8.8 88 LegendMM LegendMM LegendMM 97.81     LegendNANA
08:00 Legend Double Dagger 12.6 8.8 78 26 17 16.1 97.82     LegendNANA
09:00 Legend Double Dagger 13.8 7.9 67 29 22 16.1 97.82     LegendNANA
10:00 Legend Double Dagger 14.6 7.3 61 25 21 16.1 97.80     LegendNANA
11:00 Legend Double Dagger 15.0 7.9 62 28 18 16.1 97.80     LegendNANA
12:00 Legend Double Dagger 12.7 7.9 72 21 15 16.1 97.82     LegendNANA
13:00 Legend Double Dagger 14.2 9.1 71 36 13 16.1 97.84     LegendNANA
14:00 Legend Double Dagger 14.1 8.2 67 LegendMM 24 16.1 97.90     LegendNANA
15:00 Legend Double Dagger 12.3 9.4 82 10 13 16.1 98.00     LegendNANA
16:00 Legend Double Dagger 11.6 9.1 84 5 9 16.1 98.14     LegendNANA
17:00 Legend Double Dagger 11.5 5.6 67 36 15 16.1 98.24     LegendNANA
18:00 Legend Double Dagger 11.1 4.7 64 35 15 16.1 98.33     LegendNANA
19:00 Legend Double Dagger 10.1 5.3 72 35 18 16.1 98.41     LegendNANA
20:00 Legend Double Dagger 8.2 5.2 81 36 13 16.1 98.54     LegendNANA
21:00 Legend Double Dagger 7.2 4.7 84 3 13 16.1 98.63     LegendNANA
22:00 Legend Double Dagger 6.3 3.2 81 1 9 16.1 98.73     LegendNANA
23:00 Legend Double Dagger 5.5 2.8 83 4 5 16.1 98.79     LegendNANA

Notes on Data Quality.

Legend

  • E = Estimated
  • M = Missing
  • NA = Not Available
  • ‡ = Partner data that is not subject to review by the National Climate Archives
Date modified: